owner,sensor,date,latitude,longitude,vertical_datum,wind_speed,wind_to_direction,wind_speed_of_gust,qcFlag 
DISL,ioos:station:DISL:DISL:1,2010-09-01T00:00:00Z,30.2513,-88.0778,9.68,5.95,97.1,-9999.0,'1111122,1111122,1111122' 
DISL,ioos:station:DISL:DISL:1,2010-09-01T00:30:00Z,30.2513,-88.0778,9.68,5.99,96.3,-9999.0,'1111122,1111122,1111122' 
DISL,ioos:station:DISL:DISL:1,2010-09-01T01:00:00Z,30.2513,-88.0778,9.68,5.39,101.1,-9999.0,'1111122,1111122,1111122' 
DISL,ioos:station:DISL:DISL:1,2010-09-01T01:30:00Z,30.2513,-88.0778,9.68,5.15,102.6,-9999.0,'1111122,1111122,1111122' 
DISL,ioos:station:DISL:DISL:1,2010-09-01T02:00:00Z,30.2513,-88.0778,9.68,5.15,100.7,-9999.0,'1111122,1111122,1111122' 
DISL,ioos:station:DISL:DISL:1,2010-09-01T02:30:00Z,30.2513,-88.0778,9.68,4.49,83.7,-9999.0,'1111122,1111122,1111122' 
DISL,ioos:station:DISL:DISL:1,2010-09-01T03:00:00Z,30.2513,-88.0778,9.68,4.02,92.4,-9999.0,'1111122,1111122,1111122' 
DISL,ioos:station:DISL:DISL:1,2010-09-01T03:30:00Z,30.2513,-88.0778,9.68,3.97,86.9,-9999.0,'1111122,1111122,1111122' 
DISL,ioos:station:DISL:DISL:1,2010-09-01T04:00:00Z,30.2513,-88.0778,9.68,3.7,78.8,-9999.0,'1111122,1111122,1111122' 
DISL,ioos:station:DISL:DISL:1,2010-09-01T04:30:00Z,30.2513,-88.0778,9.68,3.59,63.08,-9999.0,'1111122,1111122,1111122' 
DISL,ioos:station:DISL:DISL:1,2010-09-01T05:00:00Z,30.2513,-88.0778,9.68,3.81,67.68,-9999.0,'1111122,1111122,1111122' 
DISL,ioos:station:DISL:DISL:1,2010-09-01T05:30:00Z,30.2513,-88.0778,9.68,4.11,62.91,-9999.0,'1111122,1111122,1111122' 
DISL,ioos:station:DISL:DISL:1,2010-09-01T06:00:00Z,30.2513,-88.0778,9.68,4.15,54.61,-9999.0,'1111122,1111122,1111122' 
DISL,ioos:station:DISL:DISL:1,2010-09-01T06:30:00Z,30.2513,-88.0778,9.68,4.42,52.12,-9999.0,'1111122,1111122,1111122' 
DISL,ioos:station:DISL:DISL:1,2010-09-01T07:00:00Z,30.2513,-88.0778,9.68,4.49,53.76,-9999.0,'1111122,1111122,1111122' 
DISL,ioos:station:DISL:DISL:1,2010-09-01T07:30:00Z,30.2513,-88.0778,9.68,5.6,60.29,-9999.0,'1111122,1111122,1111122' 
DISL,ioos:station:DISL:DISL:1,2010-09-01T08:00:00Z,30.2513,-88.0778,9.68,5.39,60.98,-9999.0,'1111122,1111122,1111122' 
DISL,ioos:station:DISL:DISL:1,2010-09-01T08:30:00Z,30.2513,-88.0778,9.68,5.61,54.5,-9999.0,'1111122,1111122,1111122' 
DISL,ioos:station:DISL:DISL:1,2010-09-01T09:00:00Z,30.2513,-88.0778,9.68,5.3,55.31,-9999.0,'1111122,1111122,1111122' 
DISL,ioos:station:DISL:DISL:1,2010-09-01T09:30:00Z,30.2513,-88.0778,9.68,6.88,58.41,-9999.0,'1111122,1111122,1111122' 
DISL,ioos:station:DISL:DISL:1,2010-09-01T10:00:00Z,30.2513,-88.0778,9.68,7.41,66.12,-9999.0,'1111122,1111122,1111122' 
DISL,ioos:station:DISL:DISL:1,2010-09-01T10:30:00Z,30.2513,-88.0778,9.68,6.75,61.04,-9999.0,'1111122,1111122,1111122' 
DISL,ioos:station:DISL:DISL:1,2010-09-01T11:00:00Z,30.2513,-88.0778,9.68,6.96,65.37,-9999.0,'1111122,1111122,1111122' 
DISL,ioos:station:DISL:DISL:1,2010-09-01T11:30:00Z,30.2513,-88.0778,9.68,6.58,68.02,-9999.0,'1111122,1111122,1111122' 
DISL,ioos:station:DISL:DISL:1,2010-09-01T12:00:00Z,30.2513,-88.0778,9.68,6.8,69.76,-9999.0,'1111122,1111122,1111122' 
DISL,ioos:station:DISL:DISL:1,2010-09-01T12:30:00Z,30.2513,-88.0778,9.68,7.08,65.12,-9999.0,'1111122,1111122,1111122' 
DISL,ioos:station:DISL:DISL:1,2010-09-01T13:00:00Z,30.2513,-88.0778,9.68,6.97,64.18,-9999.0,'1111122,1111122,1111122' 
DISL,ioos:station:DISL:DISL:1,2010-09-01T13:30:00Z,30.2513,-88.0778,9.68,6.55,72.6,-9999.0,'1111122,1111122,1111122' 
DISL,ioos:station:DISL:DISL:1,2010-09-01T14:00:00Z,30.2513,-88.0778,9.68,6.46,68.12,-9999.0,'1111122,1111122,1111122' 
DISL,ioos:station:DISL:DISL:1,2010-09-01T14:30:00Z,30.2513,-88.0778,9.68,5.76,77.8,-9999.0,'1111122,1111122,1111122' 
DISL,ioos:station:DISL:DISL:1,2010-09-01T15:00:00Z,30.2513,-88.0778,9.68,5.28,72.5,-9999.0,'1111122,1111122,1111122' 
DISL,ioos:station:DISL:DISL:1,2010-09-01T15:30:00Z,30.2513,-88.0778,9.68,5.01,73.9,-9999.0,'1111122,1111122,1111122' 
DISL,ioos:station:DISL:DISL:1,2010-09-01T16:00:00Z,30.2513,-88.0778,9.68,6.46,92.2,-9999.0,'1111122,1111122,1111122' 
DISL,ioos:station:DISL:DISL:1,2010-09-01T16:30:00Z,30.2513,-88.0778,9.68,6.88,93.0,-9999.0,'1111122,1111122,1111122' 
DISL,ioos:station:DISL:DISL:1,2010-09-01T17:00:00Z,30.2513,-88.0778,9.68,7.11,104.7,-9999.0,'1111122,1111122,1111122' 
DISL,ioos:station:DISL:DISL:1,2010-09-01T17:30:00Z,30.2513,-88.0778,9.68,6.62,93.7,-9999.0,'1111122,1111122,1111122' 
DISL,ioos:station:DISL:DISL:1,2010-09-01T18:00:00Z,30.2513,-88.0778,9.68,6.02,93.8,-9999.0,'1111122,1111122,1111122' 
DISL,ioos:station:DISL:DISL:1,2010-09-01T18:30:00Z,30.2513,-88.0778,9.68,5.98,100.1,-9999.0,'1111122,1111122,1111122' 
DISL,ioos:station:DISL:DISL:1,2010-09-01T19:00:00Z,30.2513,-88.0778,9.68,5.95,93.5,-9999.0,'1111122,1111122,1111122' 
DISL,ioos:station:DISL:DISL:1,2010-09-01T19:30:00Z,30.2513,-88.0778,9.68,6.03,101.9,-9999.0,'1111122,1111122,1111122' 
DISL,ioos:station:DISL:DISL:1,2010-09-01T20:00:00Z,30.2513,-88.0778,9.68,5.53,109.3,-9999.0,'1111122,1111122,1111122' 
DISL,ioos:station:DISL:DISL:1,2010-09-01T20:30:00Z,30.2513,-88.0778,9.68,5.38,118.0,-9999.0,'1111122,1111122,1111122' 
DISL,ioos:station:DISL:DISL:1,2010-09-01T21:00:00Z,30.2513,-88.0778,9.68,5.37,119.9,-9999.0,'1111122,1111122,1111122' 
DISL,ioos:station:DISL:DISL:1,2010-09-01T21:30:00Z,30.2513,-88.0778,9.68,4.73,120.1,-9999.0,'1111122,1111122,1111122' 
DISL,ioos:station:DISL:DISL:1,2010-09-01T22:00:00Z,30.2513,-88.0778,9.68,4.63,122.4,-9999.0,'1111122,1111122,1111122' 
DISL,ioos:station:DISL:DISL:1,2010-09-01T22:30:00Z,30.2513,-88.0778,9.68,4.33,126.9,-9999.0,'1111122,1111122,1111122' 
DISL,ioos:station:DISL:DISL:1,2010-09-01T23:00:00Z,30.2513,-88.0778,9.68,4.88,123.9,-9999.0,'1111122,1111122,1111122' 
DISL,ioos:station:DISL:DISL:1,2010-09-01T23:30:00Z,30.2513,-88.0778,9.68,4.34,123.6,-9999.0,'1111122,1111122,1111122' 
DISL,ioos:station:DISL:DISL:1,2010-09-02T00:00:00Z,30.2513,-88.0778,9.68,3.65,128.4,-9999.0,'1111122,1111122,1111122' 
DISL,ioos:station:DISL:DISL:1,2010-09-02T00:30:00Z,30.2513,-88.0778,9.68,3.9,120.8,-9999.0,'1111122,1111122,1111122' 
DISL,ioos:station:DISL:DISL:1,2010-09-02T01:00:00Z,30.2513,-88.0778,9.68,2.75,139.6,-9999.0,'1111122,1111122,1111122' 
DISL,ioos:station:DISL:DISL:1,2010-09-02T01:30:00Z,30.2513,-88.0778,9.68,2.61,130.1,-9999.0,'1111122,1111122,1111122' 
DISL,ioos:station:DISL:DISL:1,2010-09-02T02:00:00Z,30.2513,-88.0778,9.68,2.54,131.0,-9999.0,'1111122,1111122,1111122' 
DISL,ioos:station:DISL:DISL:1,2010-09-02T02:30:00Z,30.2513,-88.0778,9.68,3.1,123.7,-9999.0,'1111122,1111122,1111122' 
DISL,ioos:station:DISL:DISL:1,2010-09-02T03:00:00Z,30.2513,-88.0778,9.68,3.4,112.5,-9999.0,'1111122,1111122,1111122' 
DISL,ioos:station:DISL:DISL:1,2010-09-02T03:30:00Z,30.2513,-88.0778,9.68,3.67,119.1,-9999.0,'1111122,1111122,1111122' 
DISL,ioos:station:DISL:DISL:1,2010-09-02T04:00:00Z,30.2513,-88.0778,9.68,3.23,112.4,-9999.0,'1111122,1111122,1111122' 
DISL,ioos:station:DISL:DISL:1,2010-09-02T04:30:00Z,30.2513,-88.0778,9.68,2.75,105.6,-9999.0,'1111122,1111122,1111122' 
DISL,ioos:station:DISL:DISL:1,2010-09-02T05:00:00Z,30.2513,-88.0778,9.68,2.62,104.1,-9999.0,'1111122,1111122,1111122' 
DISL,ioos:station:DISL:DISL:1,2010-09-02T05:30:00Z,30.2513,-88.0778,9.68,2.3,107.5,-9999.0,'1111122,1111122,1111122' 
DISL,ioos:station:DISL:DISL:1,2010-09-02T06:00:00Z,30.2513,-88.0778,9.68,2.92,98.7,-9999.0,'1111122,1111122,1111122' 
DISL,ioos:station:DISL:DISL:1,2010-09-02T06:30:00Z,30.2513,-88.0778,9.68,1.84,97.4,-9999.0,'1111122,1111122,1111122' 
DISL,ioos:station:DISL:DISL:1,2010-09-02T07:00:00Z,30.2513,-88.0778,9.68,2.29,86.9,-9999.0,'1111122,1111122,1111122' 
DISL,ioos:station:DISL:DISL:1,2010-09-02T07:30:00Z,30.2513,-88.0778,9.68,1.74,94.5,-9999.0,'1111122,1111122,1111122' 
DISL,ioos:station:DISL:DISL:1,2010-09-02T08:00:00Z,30.2513,-88.0778,9.68,1.85,51.84,-9999.0,'1111122,1111122,1111122' 
DISL,ioos:station:DISL:DISL:1,2010-09-02T08:30:00Z,30.2513,-88.0778,9.68,2.1,36.99,-9999.0,'1111122,1111122,1111122' 
DISL,ioos:station:DISL:DISL:1,2010-09-02T09:00:00Z,30.2513,-88.0778,9.68,2.53,38.74,-9999.0,'1111122,1111122,1111122' 
DISL,ioos:station:DISL:DISL:1,2010-09-02T09:30:00Z,30.2513,-88.0778,9.68,3.13,39.39,-9999.0,'1111122,1111122,1111122' 
DISL,ioos:station:DISL:DISL:1,2010-09-02T10:00:00Z,30.2513,-88.0778,9.68,3.37,17.89,-9999.0,'1111122,1111122,1111122' 
DISL,ioos:station:DISL:DISL:1,2010-09-02T10:30:00Z,30.2513,-88.0778,9.68,4.17,14.8,-9999.0,'1111122,1111122,1111122' 
DISL,ioos:station:DISL:DISL:1,2010-09-02T11:00:00Z,30.2513,-88.0778,9.68,4.47,7.36,-9999.0,'1111122,1111122,1111122' 
DISL,ioos:station:DISL:DISL:1,2010-09-02T11:30:00Z,30.2513,-88.0778,9.68,4.33,23.08,-9999.0,'1111122,1111122,1111122' 
DISL,ioos:station:DISL:DISL:1,2010-09-02T12:00:00Z,30.2513,-88.0778,9.68,4.1,28.29,-9999.0,'1111122,1111122,1111122' 
DISL,ioos:station:DISL:DISL:1,2010-09-02T12:30:00Z,30.2513,-88.0778,9.68,3.81,38.71,-9999.0,'1111122,1111122,1111122' 
DISL,ioos:station:DISL:DISL:1,2010-09-02T13:00:00Z,30.2513,-88.0778,9.68,3.69,38.45,-9999.0,'1111122,1111122,1111122' 
DISL,ioos:station:DISL:DISL:1,2010-09-02T13:30:00Z,30.2513,-88.0778,9.68,3.79,29.58,-9999.0,'1111122,1111122,1111122' 
DISL,ioos:station:DISL:DISL:1,2010-09-02T14:00:00Z,30.2513,-88.0778,9.68,4.43,359.6,-9999.0,'1111122,1111122,1111122' 
DISL,ioos:station:DISL:DISL:1,2010-09-02T14:30:00Z,30.2513,-88.0778,9.68,4.77,1.694,-9999.0,'1111122,1111122,1111122' 
DISL,ioos:station:DISL:DISL:1,2010-09-02T15:00:00Z,30.2513,-88.0778,9.68,3.94,14.56,-9999.0,'1111122,1111122,1111122' 
DISL,ioos:station:DISL:DISL:1,2010-09-02T15:30:00Z,30.2513,-88.0778,9.68,5.18,29.95,-9999.0,'1111122,1111122,1111122' 
DISL,ioos:station:DISL:DISL:1,2010-09-02T16:00:00Z,30.2513,-88.0778,9.68,4.35,28.41,-9999.0,'1111122,1111122,1111122' 
DISL,ioos:station:DISL:DISL:1,2010-09-02T16:30:00Z,30.2513,-88.0778,9.68,2.79,27.3,-9999.0,'1111122,1111122,1111122' 
DISL,ioos:station:DISL:DISL:1,2010-09-02T17:00:00Z,30.2513,-88.0778,9.68,2.58,12.32,-9999.0,'1111122,1111122,1111122' 
DISL,ioos:station:DISL:DISL:1,2010-09-02T17:30:00Z,30.2513,-88.0778,9.68,2.25,10.5,-9999.0,'1111122,1111122,1111122' 
DISL,ioos:station:DISL:DISL:1,2010-09-02T18:00:00Z,30.2513,-88.0778,9.68,1.27,21.09,-9999.0,'1111122,1111122,1111122' 
DISL,ioos:station:DISL:DISL:1,2010-09-02T18:30:00Z,30.2513,-88.0778,9.68,1.15,17.4,-9999.0,'1111122,1111122,1111122' 
DISL,ioos:station:DISL:DISL:1,2010-09-02T19:00:00Z,30.2513,-88.0778,9.68,0.74,20.39,-9999.0,'1111122,1111122,1111122' 
DISL,ioos:station:DISL:DISL:1,2010-09-02T19:30:00Z,30.2513,-88.0778,9.68,1.42,101.2,-9999.0,'1111122,1111122,1111122' 
DISL,ioos:station:DISL:DISL:1,2010-09-02T20:00:00Z,30.2513,-88.0778,9.68,1.95,163.5,-9999.0,'1111122,1111122,1111122' 
DISL,ioos:station:DISL:DISL:1,2010-09-02T20:30:00Z,30.2513,-88.0778,9.68,2.07,185.7,-9999.0,'1111122,1111122,1111122' 
DISL,ioos:station:DISL:DISL:1,2010-09-02T21:00:00Z,30.2513,-88.0778,9.68,2.3,197.2,-9999.0,'1111122,1111122,1111122' 
DISL,ioos:station:DISL:DISL:1,2010-09-02T21:30:00Z,30.2513,-88.0778,9.68,2.34,202.5,-9999.0,'1111122,1111122,1111122' 
DISL,ioos:station:DISL:DISL:1,2010-09-02T22:00:00Z,30.2513,-88.0778,9.68,2.19,175.9,-9999.0,'1111122,1111122,1111122' 
DISL,ioos:station:DISL:DISL:1,2010-09-02T22:30:00Z,30.2513,-88.0778,9.68,2.52,197.8,-9999.0,'1111122,1111122,1111122' 
DISL,ioos:station:DISL:DISL:1,2010-09-02T23:00:00Z,30.2513,-88.0778,9.68,2.25,204.5,-9999.0,'1111122,1111122,1111122' 
DISL,ioos:station:DISL:DISL:1,2010-09-02T23:30:00Z,30.2513,-88.0778,9.68,2.55,213.6,-9999.0,'1111122,1111122,1111122' 
DISL,ioos:station:DISL:DISL:1,2010-09-03T00:00:00Z,30.2513,-88.0778,9.68,2.43,214.7,-9999.0,'1111122,1111122,1111122' 
DISL,ioos:station:DISL:DISL:1,2010-09-03T00:30:00Z,30.2513,-88.0778,9.68,2.26,216.3,-9999.0,'1111122,1111122,1111122' 
DISL,ioos:station:DISL:DISL:1,2010-09-03T01:00:00Z,30.2513,-88.0778,9.68,1.99,223.8,-9999.0,'1111122,1111122,1111122' 
DISL,ioos:station:DISL:DISL:1,2010-09-03T01:30:00Z,30.2513,-88.0778,9.68,1.73,239.1,-9999.0,'1111122,1111122,1111122' 
DISL,ioos:station:DISL:DISL:1,2010-09-03T02:00:00Z,30.2513,-88.0778,9.68,1.52,263.8,-9999.0,'1111122,1111122,1111122' 
DISL,ioos:station:DISL:DISL:1,2010-09-03T02:30:00Z,30.2513,-88.0778,9.68,1.53,244.1,-9999.0,'1111122,1111122,1111122' 
DISL,ioos:station:DISL:DISL:1,2010-09-03T03:00:00Z,30.2513,-88.0778,9.68,1.36,250.2,-9999.0,'1111122,1111122,1111122' 
DISL,ioos:station:DISL:DISL:1,2010-09-03T03:30:00Z,30.2513,-88.0778,9.68,1.34,255.0,-9999.0,'1111122,1111122,1111122' 
DISL,ioos:station:DISL:DISL:1,2010-09-03T04:00:00Z,30.2513,-88.0778,9.68,1.42,252.3,-9999.0,'1111122,1111122,1111122' 
DISL,ioos:station:DISL:DISL:1,2010-09-03T04:30:00Z,30.2513,-88.0778,9.68,1.47,247.0,-9999.0,'1111122,1111122,1111122' 
DISL,ioos:station:DISL:DISL:1,2010-09-03T05:00:00Z,30.2513,-88.0778,9.68,1.4,241.7,-9999.0,'1111122,1111122,1111122' 
DISL,ioos:station:DISL:DISL:1,2010-09-03T05:30:00Z,30.2513,-88.0778,9.68,1.23,256.8,-9999.0,'1111122,1111122,1111122' 
DISL,ioos:station:DISL:DISL:1,2010-09-03T06:00:00Z,30.2513,-88.0778,9.68,1.63,256.9,-9999.0,'1111122,1111122,1111122' 
DISL,ioos:station:DISL:DISL:1,2010-09-03T06:30:00Z,30.2513,-88.0778,9.68,1.72,263.8,-9999.0,'1111122,1111122,1111122' 
DISL,ioos:station:DISL:DISL:1,2010-09-03T07:00:00Z,30.2513,-88.0778,9.68,1.99,267.0,-9999.0,'1111122,1111122,1111122' 
DISL,ioos:station:DISL:DISL:1,2010-09-03T07:30:00Z,30.2513,-88.0778,9.68,2.12,256.5,-9999.0,'1111122,1111122,1111122' 
DISL,ioos:station:DISL:DISL:1,2010-09-03T08:00:00Z,30.2513,-88.0778,9.68,2.45,294.3,-9999.0,'1111122,1111122,1111122' 
DISL,ioos:station:DISL:DISL:1,2010-09-03T08:30:00Z,30.2513,-88.0778,9.68,3.07,291.6,-9999.0,'1111122,1111122,1111122' 
DISL,ioos:station:DISL:DISL:1,2010-09-03T09:00:00Z,30.2513,-88.0778,9.68,4.14,296.3,-9999.0,'1111122,1111122,1111122' 
DISL,ioos:station:DISL:DISL:1,2010-09-03T09:30:00Z,30.2513,-88.0778,9.68,4.21,301.0,-9999.0,'1111122,1111122,1111122' 
DISL,ioos:station:DISL:DISL:1,2010-09-03T10:00:00Z,30.2513,-88.0778,9.68,3.54,292.8,-9999.0,'1111122,1111122,1111122' 
DISL,ioos:station:DISL:DISL:1,2010-09-03T10:30:00Z,30.2513,-88.0778,9.68,3.33,300.5,-9999.0,'1111122,1111122,1111122' 
DISL,ioos:station:DISL:DISL:1,2010-09-03T11:00:00Z,30.2513,-88.0778,9.68,4.13,301.8,-9999.0,'1111122,1111122,1111122' 
DISL,ioos:station:DISL:DISL:1,2010-09-03T11:30:00Z,30.2513,-88.0778,9.68,4.67,306.9,-9999.0,'1111122,1111122,1111122' 
DISL,ioos:station:DISL:DISL:1,2010-09-03T12:00:00Z,30.2513,-88.0778,9.68,4.32,310.8,-9999.0,'1111122,1111122,1111122' 
DISL,ioos:station:DISL:DISL:1,2010-09-03T12:30:00Z,30.2513,-88.0778,9.68,4.98,318.7,-9999.0,'1111122,1111122,1111122' 
DISL,ioos:station:DISL:DISL:1,2010-09-03T13:00:00Z,30.2513,-88.0778,9.68,3.64,314.6,-9999.0,'1111122,1111122,1111122' 
DISL,ioos:station:DISL:DISL:1,2010-09-03T13:30:00Z,30.2513,-88.0778,9.68,4.11,323.2,-9999.0,'1111122,1111122,1111122' 
DISL,ioos:station:DISL:DISL:1,2010-09-03T14:00:00Z,30.2513,-88.0778,9.68,4.15,325.5,-9999.0,'1111122,1111122,1111122' 
DISL,ioos:station:DISL:DISL:1,2010-09-03T14:30:00Z,30.2513,-88.0778,9.68,3.18,330.4,-9999.0,'1111122,1111122,1111122' 
DISL,ioos:station:DISL:DISL:1,2010-09-03T15:00:00Z,30.2513,-88.0778,9.68,2.39,331.7,-9999.0,'1111122,1111122,1111122' 
DISL,ioos:station:DISL:DISL:1,2010-09-03T15:30:00Z,30.2513,-88.0778,9.68,2.39,314.9,-9999.0,'1111122,1111122,1111122' 
DISL,ioos:station:DISL:DISL:1,2010-09-03T16:00:00Z,30.2513,-88.0778,9.68,1.77,329.5,-9999.0,'1111122,1111122,1111122' 
DISL,ioos:station:DISL:DISL:1,2010-09-03T16:30:00Z,30.2513,-88.0778,9.68,0.82,28.73,-9999.0,'1111122,1111122,1111122' 
DISL,ioos:station:DISL:DISL:1,2010-09-03T17:00:00Z,30.2513,-88.0778,9.68,1.08,346.9,-9999.0,'1111122,1111122,1111122' 
DISL,ioos:station:DISL:DISL:1,2010-09-03T17:30:00Z,30.2513,-88.0778,9.68,2.01,300.2,-9999.0,'1111122,1111122,1111122' 
DISL,ioos:station:DISL:DISL:1,2010-09-03T18:00:00Z,30.2513,-88.0778,9.68,2.62,287.4,-9999.0,'1111122,1111122,1111122' 
DISL,ioos:station:DISL:DISL:1,2010-09-03T18:30:00Z,30.2513,-88.0778,9.68,2.44,297.1,-9999.0,'1111122,1111122,1111122' 
DISL,ioos:station:DISL:DISL:1,2010-09-03T19:00:00Z,30.2513,-88.0778,9.68,2.39,299.3,-9999.0,'1111122,1111122,1111122' 
DISL,ioos:station:DISL:DISL:1,2010-09-03T19:30:00Z,30.2513,-88.0778,9.68,2.9,292.0,-9999.0,'1111122,1111122,1111122' 
DISL,ioos:station:DISL:DISL:1,2010-09-03T20:00:00Z,30.2513,-88.0778,9.68,1.84,266.4,-9999.0,'1111122,1111122,1111122' 
DISL,ioos:station:DISL:DISL:1,2010-09-03T20:30:00Z,30.2513,-88.0778,9.68,2.83,241.1,-9999.0,'1111122,1111122,1111122' 
DISL,ioos:station:DISL:DISL:1,2010-09-03T21:00:00Z,30.2513,-88.0778,9.68,3.46,232.9,-9999.0,'1111122,1111122,1111122' 
DISL,ioos:station:DISL:DISL:1,2010-09-03T21:30:00Z,30.2513,-88.0778,9.68,2.68,229.1,-9999.0,'1111122,1111122,1111122' 
DISL,ioos:station:DISL:DISL:1,2010-09-03T22:00:00Z,30.2513,-88.0778,9.68,2.67,225.0,-9999.0,'1111122,1111122,1111122' 
DISL,ioos:station:DISL:DISL:1,2010-09-03T22:30:00Z,30.2513,-88.0778,9.68,2.36,242.9,-9999.0,'1111122,1111122,1111122' 
DISL,ioos:station:DISL:DISL:1,2010-09-03T23:00:00Z,30.2513,-88.0778,9.68,2.02,245.8,-9999.0,'1111122,1111122,1111122' 
DISL,ioos:station:DISL:DISL:1,2010-09-03T23:30:00Z,30.2513,-88.0778,9.68,2.29,240.8,-9999.0,'1111122,1111122,1111122' 
DISL,ioos:station:DISL:DISL:1,2010-09-04T00:00:00Z,30.2513,-88.0778,9.68,2.22,247.2,-9999.0,'1111122,1111122,1111122' 
DISL,ioos:station:DISL:DISL:1,2010-09-04T00:30:00Z,30.2513,-88.0778,9.68,2.12,240.4,-9999.0,'1111122,1111122,1111122' 
DISL,ioos:station:DISL:DISL:1,2010-09-04T01:00:00Z,30.2513,-88.0778,9.68,2.6,234.0,-9999.0,'1111122,1111122,1111122' 
DISL,ioos:station:DISL:DISL:1,2010-09-04T01:30:00Z,30.2513,-88.0778,9.68,2.51,249.7,-9999.0,'1111122,1111122,1111122' 
DISL,ioos:station:DISL:DISL:1,2010-09-04T02:00:00Z,30.2513,-88.0778,9.68,2.68,252.4,-9999.0,'1111122,1111122,1111122' 
DISL,ioos:station:DISL:DISL:1,2010-09-04T02:30:00Z,30.2513,-88.0778,9.68,2.16,242.7,-9999.0,'1111122,1111122,1111122' 
DISL,ioos:station:DISL:DISL:1,2010-09-04T03:00:00Z,30.2513,-88.0778,9.68,2.07,232.6,-9999.0,'1111122,1111122,1111122' 
DISL,ioos:station:DISL:DISL:1,2010-09-04T03:30:00Z,30.2513,-88.0778,9.68,2.46,251.7,-9999.0,'1111122,1111122,1111122' 
DISL,ioos:station:DISL:DISL:1,2010-09-04T04:00:00Z,30.2513,-88.0778,9.68,2.51,252.4,-9999.0,'1111122,1111122,1111122' 
DISL,ioos:station:DISL:DISL:1,2010-09-04T04:30:00Z,30.2513,-88.0778,9.68,2.0,237.9,-9999.0,'1111122,1111122,1111122' 
DISL,ioos:station:DISL:DISL:1,2010-09-04T05:00:00Z,30.2513,-88.0778,9.68,2.26,245.6,-9999.0,'1111122,1111122,1111122' 
DISL,ioos:station:DISL:DISL:1,2010-09-04T05:30:00Z,30.2513,-88.0778,9.68,2.73,251.8,-9999.0,'1111122,1111122,1111122' 
DISL,ioos:station:DISL:DISL:1,2010-09-04T06:00:00Z,30.2513,-88.0778,9.68,2.17,242.8,-9999.0,'1111122,1111122,1111122' 
DISL,ioos:station:DISL:DISL:1,2010-09-04T06:30:00Z,30.2513,-88.0778,9.68,2.65,255.3,-9999.0,'1111122,1111122,1111122' 
DISL,ioos:station:DISL:DISL:1,2010-09-04T07:00:00Z,30.2513,-88.0778,9.68,2.39,252.1,-9999.0,'1111122,1111122,1111122' 
DISL,ioos:station:DISL:DISL:1,2010-09-04T07:30:00Z,30.2513,-88.0778,9.68,1.94,256.1,-9999.0,'1111122,1111122,1111122' 
DISL,ioos:station:DISL:DISL:1,2010-09-04T08:00:00Z,30.2513,-88.0778,9.68,3.3,261.9,-9999.0,'1111122,1111122,1111122' 
DISL,ioos:station:DISL:DISL:1,2010-09-04T08:30:00Z,30.2513,-88.0778,9.68,4.55,290.5,-9999.0,'1111122,1111122,1111122' 
DISL,ioos:station:DISL:DISL:1,2010-09-04T09:00:00Z,30.2513,-88.0778,9.68,4.48,286.6,-9999.0,'1111122,1111122,1111122' 
DISL,ioos:station:DISL:DISL:1,2010-09-04T09:30:00Z,30.2513,-88.0778,9.68,5.19,308.2,-9999.0,'1111122,1111122,1111122' 
DISL,ioos:station:DISL:DISL:1,2010-09-04T10:00:00Z,30.2513,-88.0778,9.68,5.86,312.1,-9999.0,'1111122,1111122,1111122' 
DISL,ioos:station:DISL:DISL:1,2010-09-04T10:30:00Z,30.2513,-88.0778,9.68,5.94,329.4,-9999.0,'1111122,1111122,1111122' 
DISL,ioos:station:DISL:DISL:1,2010-09-04T11:00:00Z,30.2513,-88.0778,9.68,6.47,345.1,-9999.0,'1111122,1111122,1111122' 
DISL,ioos:station:DISL:DISL:1,2010-09-04T11:30:00Z,30.2513,-88.0778,9.68,6.99,7.83,-9999.0,'1111122,1111122,1111122' 
DISL,ioos:station:DISL:DISL:1,2010-09-04T12:00:00Z,30.2513,-88.0778,9.68,8.39,13.37,-9999.0,'1111122,1111122,1111122' 
DISL,ioos:station:DISL:DISL:1,2010-09-04T12:30:00Z,30.2513,-88.0778,9.68,8.28,16.87,-9999.0,'1111122,1111122,1111122' 
DISL,ioos:station:DISL:DISL:1,2010-09-04T13:00:00Z,30.2513,-88.0778,9.68,8.67,11.33,-9999.0,'1111122,1111122,1111122' 
DISL,ioos:station:DISL:DISL:1,2010-09-04T13:30:00Z,30.2513,-88.0778,9.68,9.23,17.38,-9999.0,'1111122,1111122,1111122' 
DISL,ioos:station:DISL:DISL:1,2010-09-04T14:00:00Z,30.2513,-88.0778,9.68,8.74,10.79,-9999.0,'1111122,1111122,1111122' 
DISL,ioos:station:DISL:DISL:1,2010-09-04T14:30:00Z,30.2513,-88.0778,9.68,8.23,12.57,-9999.0,'1111122,1111122,1111122' 
DISL,ioos:station:DISL:DISL:1,2010-09-04T15:00:00Z,30.2513,-88.0778,9.68,7.81,7.68,-9999.0,'1111122,1111122,1111122' 
DISL,ioos:station:DISL:DISL:1,2010-09-04T15:30:00Z,30.2513,-88.0778,9.68,7.77,5.537,-9999.0,'1111122,1111122,1111122' 
DISL,ioos:station:DISL:DISL:1,2010-09-04T16:00:00Z,30.2513,-88.0778,9.68,6.78,7.81,-9999.0,'1111122,1111122,1111122' 
DISL,ioos:station:DISL:DISL:1,2010-09-04T16:30:00Z,30.2513,-88.0778,9.68,6.45,6.167,-9999.0,'1111122,1111122,1111122' 
DISL,ioos:station:DISL:DISL:1,2010-09-04T17:00:00Z,30.2513,-88.0778,9.68,6.04,1.79,-9999.0,'1111122,1111122,1111122' 
DISL,ioos:station:DISL:DISL:1,2010-09-04T17:30:00Z,30.2513,-88.0778,9.68,5.19,359.9,-9999.0,'1111122,1111122,1111122' 
DISL,ioos:station:DISL:DISL:1,2010-09-04T18:00:00Z,30.2513,-88.0778,9.68,5.37,358.5,-9999.0,'1111122,1111122,1111122' 
DISL,ioos:station:DISL:DISL:1,2010-09-04T18:30:00Z,30.2513,-88.0778,9.68,4.49,358.4,-9999.0,'1111122,1111122,1111122' 
DISL,ioos:station:DISL:DISL:1,2010-09-04T19:00:00Z,30.2513,-88.0778,9.68,3.69,358.3,-9999.0,'1111122,1111122,1111122' 
DISL,ioos:station:DISL:DISL:1,2010-09-04T19:30:00Z,30.2513,-88.0778,9.68,3.27,345.6,-9999.0,'1111122,1111122,1111122' 
DISL,ioos:station:DISL:DISL:1,2010-09-04T20:00:00Z,30.2513,-88.0778,9.68,3.23,356.5,-9999.0,'1111122,1111122,1111122' 
DISL,ioos:station:DISL:DISL:1,2010-09-04T20:30:00Z,30.2513,-88.0778,9.68,2.39,2.998,-9999.0,'1111122,1111122,1111122' 
DISL,ioos:station:DISL:DISL:1,2010-09-04T21:00:00Z,30.2513,-88.0778,9.68,2.13,10.57,-9999.0,'1111122,1111122,1111122' 
DISL,ioos:station:DISL:DISL:1,2010-09-04T21:30:00Z,30.2513,-88.0778,9.68,2.82,8.79,-9999.0,'1111122,1111122,1111122' 
DISL,ioos:station:DISL:DISL:1,2010-09-04T22:00:00Z,30.2513,-88.0778,9.68,3.91,4.184,-9999.0,'1111122,1111122,1111122' 
DISL,ioos:station:DISL:DISL:1,2010-09-04T22:30:00Z,30.2513,-88.0778,9.68,3.71,3.714,-9999.0,'1111122,1111122,1111122' 
DISL,ioos:station:DISL:DISL:1,2010-09-04T23:00:00Z,30.2513,-88.0778,9.68,3.73,3.277,-9999.0,'1111122,1111122,1111122' 
DISL,ioos:station:DISL:DISL:1,2010-09-04T23:30:00Z,30.2513,-88.0778,9.68,3.97,3.369,-9999.0,'1111122,1111122,1111122' 
DISL,ioos:station:DISL:DISL:1,2010-09-05T00:00:00Z,30.2513,-88.0778,9.68,2.3,301.3,-9999.0,'1111122,1111122,1111122' 
DISL,ioos:station:DISL:DISL:1,2010-09-05T00:30:00Z,30.2513,-88.0778,9.68,1.93,252.4,-9999.0,'1111122,1111122,1111122' 
DISL,ioos:station:DISL:DISL:1,2010-09-05T01:00:00Z,30.2513,-88.0778,9.68,3.45,325.2,-9999.0,'1111122,1111122,1111122' 
DISL,ioos:station:DISL:DISL:1,2010-09-05T01:30:00Z,30.2513,-88.0778,9.68,3.23,322.4,-9999.0,'1111122,1111122,1111122' 
DISL,ioos:station:DISL:DISL:1,2010-09-05T02:00:00Z,30.2513,-88.0778,9.68,1.47,273.0,-9999.0,'1111122,1111122,1111122' 
DISL,ioos:station:DISL:DISL:1,2010-09-05T02:30:00Z,30.2513,-88.0778,9.68,1.52,291.9,-9999.0,'1111122,1111122,1111122' 
DISL,ioos:station:DISL:DISL:1,2010-09-05T03:00:00Z,30.2513,-88.0778,9.68,1.28,295.6,-9999.0,'1111122,1111122,1111122' 
DISL,ioos:station:DISL:DISL:1,2010-09-05T03:30:00Z,30.2513,-88.0778,9.68,2.99,330.9,-9999.0,'1111122,1111122,1111122' 
DISL,ioos:station:DISL:DISL:1,2010-09-05T04:00:00Z,30.2513,-88.0778,9.68,3.24,332.1,-9999.0,'1111122,1111122,1111122' 